When you browse on this site, cookies collect data to enhance your experience and personalize the content and advertising you see.
Visit our Privacy Policy to learn more. By continuing to use the site, you agree to this use of cookies and data.
  • en Suisse
  • Liste des pays
  • À 7 jours
  • Température de l'eau
  • Carte météo
  • Widgets météo
  • user-avatar
    Se connecter

    Météo par heure à Kurcy

    Ce jour, 5 Juin, Vendredi

    Heure Température Précipitation Vent Pression Humidité
    00:00 +11°C° 0 mm 3 m/s 743 mmHg 93%
    01:00 +11°C° 0 mm 3 m/s 743 mmHg 93%
    02:00 +11°C° 0 mm 3 m/s 744 mmHg 93%
    03:00 +10°C° 0 mm 3 m/s 743 mmHg 94%
    04:00 +11°C° 0 mm 3 m/s 744 mmHg 93%
    05:00 +12°C° 0 mm 3 m/s 744 mmHg 91%
    06:00 +12°C° 0 mm 4 m/s 744 mmHg 89%
    07:00 +14°C° 0 mm 4 m/s 744 mmHg 86%
    08:00 +15°C° 0 mm 5 m/s 744 mmHg 82%
    09:00 +16°C° 0 mm 5 m/s 744 mmHg 79%
    10:00 +17°C° 0.2 mm 6 m/s 744 mmHg 76%
    11:00 +18°C° 0.2 mm 7 m/s 744 mmHg 73%
    12:00 +18°C° 0.2 mm 7 m/s 744 mmHg 70%
    13:00 +18°C° 0.5 mm 8 m/s 744 mmHg 73%
    14:00 +18°C° 0.5 mm 8 m/s 744 mmHg 75%
    15:00 +17°C° 0.5 mm 8 m/s 744 mmHg 77%
    16:00 +16°C° 0.7 mm 7 m/s 744 mmHg 82%
    17:00 +14°C° 0.7 mm 6 m/s 744 mmHg 88%
    18:00 +13°C° 0.7 mm 5 m/s 744 mmHg 93%
    19:00 +13°C° 0.8 mm 5 m/s 744 mmHg 93%
    20:00 +13°C° 0.8 mm 4 m/s 744 mmHg 94%
    21:00 +13°C° 0.8 mm 4 m/s 744 mmHg 95%
    22:00 +13°C° 0.6 mm 4 m/s 744 mmHg 96%
    23:00 +13°C° 0.6 mm 4 m/s 744 mmHg 96%

    Demain, 6 Juin, Samedi

    Heure Température Précipitation Vent Pression Humidité
    00:00 +13°C° 0.6 mm 4 m/s 744 mmHg 97%
    01:00 +13°C° 0 mm 4 m/s 744 mmHg 97%
    02:00 +13°C° 0 mm 3 m/s 745 mmHg 97%
    03:00 +13°C° 0 mm 3 m/s 745 mmHg 97%
    04:00 +13°C° 0 mm 3 m/s 745 mmHg 97%
    05:00 +13°C° 0 mm 3 m/s 745 mmHg 97%
    06:00 +14°C° 0 mm 3 m/s 745 mmHg 97%
    07:00 +16°C° 0 mm 3 m/s 745 mmHg 95%
    08:00 +17°C° 0 mm 3 m/s 746 mmHg 92%
    09:00 +18°C° 0 mm 3 m/s 746 mmHg 90%
    10:00 +19°C° 0.1 mm 3 m/s 746 mmHg 88%
    11:00 +20°C° 0.1 mm 3 m/s 746 mmHg 85%
    12:00 +21°C° 0.1 mm 3 m/s 747 mmHg 83%
    13:00 +21°C° 0.4 mm 3 m/s 747 mmHg 81%
    14:00 +22°C° 0.4 mm 3 m/s 747 mmHg 80%
    15:00 +24°C° 0.4 mm 3 m/s 747 mmHg 79%
    16:00 +24°C° 0.2 mm 3 m/s 746 mmHg 80%
    17:00 +24°C° 0.2 mm 3 m/s 746 mmHg 81%
    18:00 +24°C° 0.2 mm 3 m/s 746 mmHg 82%
    19:00 +22°C° 0.4 mm 3 m/s 746 mmHg 85%
    20:00 +21°C° 0.4 mm 2 m/s 747 mmHg 88%
    21:00 +19°C° 0.4 mm 2 m/s 747 mmHg 91%
    22:00 +19°C° 0 mm 2 m/s 747 mmHg 92%
    23:00 +19°C° 0 mm 2 m/s 747 mmHg 92%

    Après-demain, 7 Juin, Dimanche

    Heure Température Précipitation Vent Pression Humidité
    00:00 +18°C° 0 mm 2 m/s 747 mmHg 93%
    01:00 +18°C° 0 mm 2 m/s 748 mmHg 93%
    02:00 +18°C° 0 mm 2 m/s 748 mmHg 93%
    03:00 +17°C° 0 mm 2 m/s 748 mmHg 93%
    04:00 +18°C° 0 mm 2 m/s 748 mmHg 93%
    05:00 +18°C° 0 mm 2 m/s 748 mmHg 93%
    06:00 +19°C° 0 mm 2 m/s 748 mmHg 92%
    07:00 +20°C° 0 mm 2 m/s 749 mmHg 90%
    08:00 +21°C° 0 mm 2 m/s 749 mmHg 88%
    09:00 +23°C° 0 mm 2 m/s 749 mmHg 86%
    10:00 +24°C° 0.8 mm 2 m/s 749 mmHg 81%
    11:00 +25°C° 0.8 mm 2 m/s 749 mmHg 77%
    12:00 +26°C° 0.8 mm 3 m/s 749 mmHg 73%
    13:00 +26°C° 1.5 mm 3 m/s 749 mmHg 72%
    14:00 +27°C° 1.5 mm 2 m/s 749 mmHg 71%
    15:00 +27°C° 1.5 mm 2 m/s 749 mmHg 70%
    16:00 +27°C° 0.9 mm 2 m/s 749 mmHg 73%
    17:00 +26°C° 0.9 mm 2 m/s 749 mmHg 76%
    18:00 +26°C° 0.9 mm 1 m/s 749 mmHg 79%
    19:00 +24°C° 0 mm 1 m/s 749 mmHg 82%
    20:00 +23°C° 0 mm 1 m/s 749 mmHg 85%
    21:00 +22°C° 0 mm 1 m/s 749 mmHg 88%
    22:00 +21°C° 0.1 mm 1 m/s 749 mmHg 88%
    23:00 +20°C° 0.1 mm 1 m/s 749 mmHg 89%

    8 Juin, Lundi

    Heure Température Précipitation Vent Pression Humidité
    00:00 +20°C° 0.1 mm 1 m/s 749 mmHg 90%
    01:00 +20°C° 0 mm 1 m/s 749 mmHg 90%
    02:00 +19°C° 0 mm 1 m/s 750 mmHg 90%
    03:00 +17°C° 0 mm 0 m/s 750 mmHg 90%
    04:00 +18°C° 0 mm 0 m/s 750 mmHg 90%
    05:00 +18°C° 0 mm 0 m/s 750 mmHg 89%
    06:00 +19°C° 0 mm 0 m/s 750 mmHg 88%
    07:00 +22°C° 0.2 mm 1 m/s 750 mmHg 86%
    08:00 +23°C° 0.2 mm 2 m/s 750 mmHg 84%
    09:00 +24°C° 0.2 mm 2 m/s 750 mmHg 82%
    10:00 +25°C° 1 mm 3 m/s 750 mmHg 80%
    11:00 +25°C° 1 mm 4 m/s 750 mmHg 79%
    12:00 +26°C° 1 mm 5 m/s 750 mmHg 78%
    13:00 +26°C° 0.5 mm 5 m/s 750 mmHg 76%
    14:00 +26°C° 0.5 mm 5 m/s 750 mmHg 75%
    15:00 +26°C° 0.5 mm 5 m/s 749 mmHg 73%
    16:00 +26°C° 0 mm 4 m/s 749 mmHg 75%
    17:00 +25°C° 0 mm 4 m/s 749 mmHg 77%
    18:00 +25°C° 0 mm 3 m/s 749 mmHg 79%
    19:00 +22°C° 0 mm 3 m/s 749 mmHg 82%
    20:00 +21°C° 0 mm 3 m/s 749 mmHg 86%
    21:00 +20°C° 0 mm 2 m/s 750 mmHg 90%
    22:00 +19°C° 0 mm 2 m/s 750 mmHg 91%
    23:00 +18°C° 0 mm 3 m/s 750 mmHg 92%

    9 Juin, Mardi

    Heure Température Précipitation Vent Pression Humidité
    00:00 +18°C° 0 mm 3 m/s 750 mmHg 94%
    01:00 +17°C° 0 mm 3 m/s 750 mmHg 94%
    02:00 +17°C° 0 mm 2 m/s 750 mmHg 95%
    03:00 +17°C° 0 mm 2 m/s 750 mmHg 95%
    04:00 +17°C° 0 mm 3 m/s 750 mmHg 94%
    05:00 +17°C° 0 mm 3 m/s 750 mmHg 94%
    06:00 +18°C° 0 mm 3 m/s 751 mmHg 93%
    07:00 +19°C° 0 mm 3 m/s 751 mmHg 89%
    08:00 +20°C° 0 mm 3 m/s 751 mmHg 86%
    09:00 +21°C° 0 mm 4 m/s 751 mmHg 83%
    10:00 +22°C° 0 mm 4 m/s 751 mmHg 79%
    11:00 +23°C° 0 mm 4 m/s 751 mmHg 76%
    12:00 +25°C° 0 mm 5 m/s 751 mmHg 72%
    13:00 +25°C° 0.2 mm 5 m/s 751 mmHg 72%
    14:00 +24°C° 0.2 mm 6 m/s 751 mmHg 71%
    15:00 +24°C° 0.2 mm 6 m/s 750 mmHg 71%
    16:00 +25°C° 0.3 mm 5 m/s 750 mmHg 73%
    17:00 +23°C° 0.3 mm 5 m/s 750 mmHg 76%
    18:00 +23°C° 0.3 mm 4 m/s 750 mmHg 79%
    19:00 +21°C° 0.1 mm 4 m/s 750 mmHg 82%
    20:00 +20°C° 0.1 mm 5 m/s 750 mmHg 85%
    21:00 +17°C° 0.1 mm 5 m/s 750 mmHg 87%
    22:00 +17°C° 0.2 mm 5 m/s 750 mmHg 87%
    23:00 +17°C° 0.2 mm 5 m/s 750 mmHg 88%

    10 Juin, Mercredi

    Heure Température Précipitation Vent Pression Humidité
    00:00 +17°C° 0.2 mm 5 m/s 750 mmHg 88%
    01:00 +16°C° 1 mm 5 m/s 750 mmHg 89%
    02:00 +16°C° 1 mm 5 m/s 750 mmHg 90%
    03:00 +16°C° 1 mm 5 m/s 750 mmHg 91%
    04:00 +16°C° 0.7 mm 5 m/s 750 mmHg 90%
    05:00 +17°C° 0.7 mm 5 m/s 750 mmHg 88%
    06:00 +17°C° 0.7 mm 5 m/s 750 mmHg 87%
    07:00 +19°C° 0 mm 5 m/s 750 mmHg 85%
    08:00 +20°C° 0 mm 6 m/s 750 mmHg 82%
    09:00 +21°C° 0 mm 6 m/s 750 mmHg 80%
    10:00 +22°C° 0 mm 6 m/s 750 mmHg 78%
    11:00 +23°C° 0 mm 6 m/s 750 mmHg 77%
    12:00 +23°C° 0 mm 5 m/s 750 mmHg 75%
    13:00 +25°C° 0 mm 5 m/s 750 mmHg 74%
    14:00 +25°C° 0 mm 5 m/s 749 mmHg 74%
    15:00 +25°C° 0 mm 5 m/s 749 mmHg 73%
    16:00 +25°C° 0.4 mm 5 m/s 749 mmHg 76%
    17:00 +25°C° 0.4 mm 4 m/s 749 mmHg 79%
    18:00 +25°C° 0.4 mm 4 m/s 749 mmHg 82%
    19:00 +22°C° 0.7 mm 3 m/s 749 mmHg 85%
    20:00 +21°C° 0.7 mm 3 m/s 748 mmHg 89%
    21:00 +20°C° 0.7 mm 2 m/s 748 mmHg 92%
    22:00 +19°C° 0.5 mm 2 m/s 748 mmHg 92%
    23:00 +19°C° 0.5 mm 2 m/s 748 mmHg 93%
    Voir plus